Kalamazoo, MI

7:48 PM EDT on July 24, 2017 (GMT -0400)
Kalamazoo-Battle Creek International

Weather History for KAZO - May, 2013

Change the Weather History Date:

Friday, May 10, 2013

  Actual Average Record
Temperature  
Mean Temperature 54 °F 57 °F  
Max Temperature 63 °F 68 °F 86 °F (1979)
Min Temperature 45 °F 46 °F 26 °F (1966)
Degree Days  
Heating Degree Days 11 9  
Month to date heating degree days 17 97  
Since 1 July heating degree days 6149 6240  
Cooling Degree Days 0 1  
Month to date cooling degree days 17 4  
Year to date cooling degree days 19 8  
Growing Degree Days 4 (Base 50)    
Moisture  
Dew Point 53 °F    
Average Humidity 89    
Maximum Humidity 100    
Minimum Humidity 78    
Precipitation  
Precipitation 0.17 in 0.14 in 1.72 in (1948)
Month to date precipitation 0.80 1.22  
Year to date precipitation 12.39 9.79  
Sea Level Pressure  
Sea Level Pressure 29.83 in    
Wind  
Wind Speed 7 mph (North)    
Max Wind Speed 15 mph    
Max Gust Speed 21 mph    
Visibility 5 miles    
Events Rain    
T = Trace of Precipitation, MM = Missing Value Source: NWS Daily Summary

Daily Weather History Graph

Daily Weather History Graph

Search for Another Location

Airport or City:

Trip Planner

Search our weather history database for the weather conditions in past years. The results will help you decide how hot, cold, wet, or windy it might be!

Date:

Astronomy

May. 10, 2013 Rise Set
Actual Time 6:26 AM EDT 8:51 PM EDT
Civil Twilight 5:54 AM EDT 9:23 PM EDT
Nautical Twilight 5:15 AM EDT 10:02 PM EDT
Astronomical Twilight 4:31 AM EDT 10:46 PM EDT
Moon 6:49 AM EDT (5/10) 9:40 PM EDT (5/10)
Length of Visible Light 15h 28m
Length of Day
14h 25m
New Moon, 0% of the Moon is Illuminated
May 10
New Moon
May 18
First Quarter
May 25
Full
May 31
Last Quarter
Jun 8
New

Hourly Weather History & Observations

Time (EDT) Temp. Windchill Dew Point Humidity Pressure Visibility Wind Dir Wind Speed Gust Speed Precip Events Conditions
12:37 AM 62.6 °F - 59.0 °F 88% 29.90 in 5.0 mi SSE 3.5 mph - 0.02 in Rain Light Rain
12:50 AM 62.6 °F - 59.0 °F 88% 29.90 in 6.0 mi SSE 3.5 mph - 0.02 in   Overcast
12:53 AM 62.6 °F - 59.0 °F 88% 29.90 in 6.0 mi SSE 3.5 mph - N/A   Overcast
1:53 AM 61.0 °F - 59.0 °F 93% 29.85 in 3.0 mi Calm Calm - 0.01 in Rain Light Rain
2:53 AM 61.0 °F - 59.0 °F 93% 29.82 in 4.0 mi Calm Calm - 0.01 in Rain Light Rain
3:45 AM 60.8 °F - 59.0 °F 94% 29.81 in 1.8 mi Calm Calm - 0.05 in Rain Heavy Rain
3:53 AM 60.1 °F - 59.0 °F 96% 29.79 in 1.8 mi Calm Calm - 0.06 in Rain Rain
4:00 AM 60.8 °F - 59.0 °F 94% 29.80 in 1.5 mi Calm Calm - 0.02 in Rain Rain
4:07 AM 60.8 °F - 59.0 °F 94% 29.80 in 1.8 mi ESE 3.5 mph - 0.02 in Rain Light Rain
4:20 AM 60.8 °F - 57.2 °F 88% 29.79 in 3.0 mi SE 3.5 mph - 0.03 in Rain Light Rain
4:36 AM 60.8 °F - 57.2 °F 88% 29.79 in 2.0 mi ESE 3.5 mph - 0.04 in Rain Light Rain
4:53 AM 59.0 °F - 57.9 °F 96% 29.77 in 2.5 mi Calm Calm - 0.06 in Rain Light Rain
5:00 AM 59.0 °F - 57.2 °F 94% 29.78 in 3.0 mi Calm Calm - 0.00 in Rain Light Rain
5:04 AM 59.0 °F - 57.2 °F 94% 29.78 in 2.5 mi Calm Calm - 0.01 in Rain Light Rain
5:14 AM 59.0 °F - 57.2 °F 94% 29.78 in 2.5 mi Calm Calm - 0.01 in Rain Light Rain
5:43 AM 59.0 °F - 57.2 °F 94% 29.77 in 3.0 mi Calm Calm - 0.02 in Rain Light Rain
5:51 AM 59.0 °F - 57.2 °F 94% 29.77 in 3.0 mi Calm Calm - 0.02 in Rain Light Rain
5:53 AM 59.0 °F - 57.9 °F 96% 29.76 in 3.0 mi Calm Calm - 0.02 in Rain Light Rain
6:53 AM 61.0 °F - 59.0 °F 93% 29.76 in 2.0 mi SW 8.1 mph - 0.00 in   Overcast
7:53 AM 62.1 °F - 60.1 °F 93% 29.77 in 2.0 mi SSW 5.8 mph - N/A   Overcast
8:53 AM 62.1 °F - 59.0 °F 90% 29.78 in 3.0 mi SW 8.1 mph 17.3 mph N/A   Overcast
9:50 AM 62.6 °F - 59.0 °F 88% 29.78 in 3.0 mi WSW 10.4 mph - 0.00 in Rain Light Rain
9:53 AM 62.1 °F - 59.0 °F 90% 29.78 in 4.0 mi SW 10.4 mph - 0.00 in Rain Light Rain
10:53 AM 63.0 °F - 57.9 °F 84% 29.78 in 7.0 mi West 9.2 mph - 0.00 in   Overcast
11:53 AM 61.0 °F - 57.0 °F 87% 29.80 in 8.0 mi WNW 9.2 mph - N/A   Overcast
12:53 PM 62.6 °F - 55.4 °F 77% 29.80 in 10.0 mi SW 10.4 mph - N/A   Mostly Cloudy
1:51 PM 53.6 °F - 50.0 °F 88% 29.83 in 10.0 mi North 8.1 mph - N/A   Overcast
1:53 PM 52.0 °F - 50.0 °F 93% 29.83 in 10.0 mi North 10.4 mph - N/A   Overcast
2:53 PM 50.0 °F - 48.0 °F 93% 29.85 in 10.0 mi NNE 11.5 mph - N/A   Overcast
3:04 PM 50.0 °F - 46.4 °F 87% 29.85 in 10.0 mi NNE 9.2 mph - N/A   Overcast
3:53 PM 48.9 °F - 46.0 °F 90% 29.86 in 3.0 mi North 9.2 mph - N/A   Overcast
3:57 PM 48.2 °F - 46.4 °F 93% 29.85 in 3.0 mi North 9.2 mph - N/A   Overcast
4:04 PM 48.2 °F - 46.4 °F 93% 29.85 in 3.0 mi NNE 8.1 mph - N/A   Overcast
4:50 PM 48.2 °F - 46.4 °F 93% 29.85 in 1.8 mi North 9.2 mph - 0.00 in   Overcast
4:53 PM 48.0 °F - 46.0 °F 93% 29.86 in 1.5 mi North 11.5 mph - 0.00 in   Overcast
5:53 PM 46.9 °F - 44.1 °F 90% 29.87 in 8.0 mi NNE 9.2 mph - 0.00 in   Overcast
6:50 PM 46.4 °F 42.9 °F 44.6 °F 93% 29.86 in 2.5 mi North 6.9 mph - 0.00 in Rain Light Rain
6:53 PM 46.0 °F 41.4 °F 45.0 °F 96% 29.87 in 2.5 mi North 9.2 mph - 0.00 in Rain Light Rain
7:53 PM 46.0 °F 41.4 °F 43.0 °F 89% 29.89 in 10.0 mi North 9.2 mph - 0.00 in   Overcast
8:53 PM 45.0 °F 39.7 °F 43.0 °F 93% 29.90 in 7.0 mi North 10.4 mph - 0.00 in   Overcast
9:53 PM 46.0 °F 43.1 °F 43.0 °F 89% 29.92 in 10.0 mi North 5.8 mph - N/A   Overcast
10:53 PM 45.0 °F 42.6 °F 44.1 °F 97% 29.93 in 4.0 mi North 4.6 mph - N/A   Overcast
11:53 PM 46.0 °F 44.8 °F 44.1 °F 93% 29.92 in 10.0 mi North 3.5 mph - N/A   Overcast